weather.gov     
National Weather Service

Terminal Aerodrome Forecast
NWS Homepage
This page is being discontinued on March 12, 2014.
The same data is available at this site. Please update your bookmarks.
Thank you, and we apologize for the inconvenience.
Please send an email to SR-SRH.Webmaster@noaa.gov with any concerns.


Current Version
Previous Version:    01  02  03  04  05  06  07  08  09  10  11  12  13  14  15  16  17  18  19  
[Printable]
300
FTPA31 PHFO 301700
TAFOGG
TAF
PHOG 301721Z 3018/3118 06007KT P6SM FEW050
     FM302000 04020G32KT P6SM SCT050
     FM310500 04012G22KT P6SM VCSH SCT050
     FM311000 04012KT P6SM VCSH SCT025 BKN050
      AMD LTD TO WX VIS AND WIND 3109/3116=


U.S. Dept. of Commerce
NOAA National Weather Service
1325 East West Highway
Silver Spring, MD 20910
E-mail: w-nws.webmaster@noaa.gov
Page last modified: May 16, 2007
NATIONAL WEATHER SERVICE: for Safety, for Work, for Fun - FOR LIFE